Location: Gull Harbor
(47.1000°N, 122.9000°W)
Time: 14:36:56
(UTC-07:00)

OTV 4 - Visible Passes

Search period start: 25 March 2017 00:00
Search period end: 04 April 2017 00:00
Orbit: 322 x 354 km, 38.0° (Epoch: 14 January)

Date Brightness Start Highest point End Pass type
(mag) Time Alt. Az. Time Alt. Az. Time Alt. Az.
29 Mar 2.9 06:24:04 10° SSW 06:25:05 11° S 06:26:06 10° SSE visible
31 Mar 2.8 05:30:48 12° S 05:31:14 12° S 05:32:24 10° SSE visible
01 Apr 2.6 05:50:44 11° SSW 05:51:59 14° S 05:53:30 10° SSE visible
02 Apr 2.7 06:11:27 10° SW 06:12:45 12° S 06:14:02 10° SSE visible
03 Apr 3.0 04:59:24 11° SSE 04:59:24 11° SSE 04:59:42 10° SSE visible
